OE3XAM-13 Weather Reports


Display with metric or nautical units.
time (UTC)temp
F
wind
direction
speed
MPH
gust
MPH
rain 1hr
in
rain 24hr
in
rain mn
in
humidity
%
barometer
mb
20260506091128 72 0 1.0 0.0 0.00 0.00 0.00 40 971.0
20260506084128 70 0 1.0 0.0 0.00 0.00 0.00 47 972.0
20260506081128 68 0 0.0 0.0 0.00 0.00 0.00 51 972.0
20260506071128 64 0 3.0 0.0 0.00 0.00 0.00 60 973.0
20260506061128 59 0 0.0 0.0 0.00 0.00 0.00 71 973.0
20260506051128 53 0 0.0 0.0 0.00 0.00 0.00 80 973.0
20260506044128 51 0 0.0 0.0 0.00 0.00 0.00 79 973.0
20260506041128 51 0 1.0 0.0 0.00 0.00 0.00 79 973.0
20260506034128 52 0 1.0 0.0 0.00 0.00 0.00 77 973.0
20260506031128 53 0 2.0 0.0 0.00 0.00 0.00 75 973.0
20260506024128 54 0 1.0 0.0 0.00 0.00 0.00 73 973.0
20260506021128 56 0 1.0 0.0 0.00 0.00 0.00 69 973.0
20260506014128 58 0 1.0 0.0 0.00 0.00 0.00 64 973.0
20260506011128 59 0 4.0 0.0 0.00 0.00 0.00 64 973.0
20260506004128 60 0 2.0 0.0 0.00 0.00 0.00 65 972.0
20260506001128 59 0 2.0 0.0 0.00 0.00 0.00 67 973.0
20260505234128 58 0 2.0 0.0 0.00 0.00 0.00 69 972.0
20260505231128 57 0 7.0 0.0 0.00 0.00 0.00 71 972.0
20260505224128 58 0 1.0 0.0 0.00 0.00 0.00 69 971.0
20260505221128 60 0 0.0 0.0 0.00 0.00 0.00 67 971.0
20260505214128 61 0 2.0 0.0 0.00 0.00 0.00 64 971.0
20260505211128 63 0 1.0 0.0 0.00 0.00 0.00 58 971.0
20260505204128 63 0 0.0 0.0 0.00 0.00 0.00 57 971.0
20260505201128 64 0 5.0 0.0 0.00 0.00 0.00 56 970.0
20260505194128 65 0 5.0 0.0 0.00 0.00 0.00 52 970.0
20260505191128 68 0 4.0 0.0 0.00 0.00 0.00 43 969.0
20260505184128 67 0 5.0 0.0 0.00 0.00 0.00 47 968.0
20260505181128 69 0 0.0 0.0 0.00 0.00 0.00 42 967.0
20260505174128 76 0 0.0 0.0 0.00 0.00 0.00 31 967.0
20260505171128 78 0 3.0 0.0 0.00 0.00 0.00 27 967.0
20260505164128 80 0 7.0 0.0 0.00 0.00 0.00 24 968.0
20260505161128 83 0 6.0 0.0 0.00 0.00 0.00 24 967.0
20260505151128 83 0 4.0 0.0 0.00 0.00 0.00 23 968.0
20260505124128 84 0 0.0 0.0 0.00 0.00 0.00 24 970.0
20260505121128 84 0 0.0 0.0 0.00 0.00 0.00 24 970.0
20260505114128 82 0 6.0 0.0 0.00 0.00 0.00 26 971.0
20260505111128 81 0 2.0 0.0 0.00 0.00 0.00 29 970.0
20260505101128 79 0 4.0 0.0 0.00 0.00 0.00 33 971.0
20260505094128 78 0 1.0 0.0 0.00 0.00 0.00 35 972.0